Location: Kuppenheim
(48.8299°N, 8.2568°E)
Time: 07:47:50
(UTC+00:00)

ERBS - Pass Details

Date: 29 October 2021
Orbit: 393 x 407 km, 57.0° (Epoch: 30 November)

Event Time Altitude Azimuth Distance (km) Brightness Sun altitude
Exits shadow 03:48:58 41° 92° (E) 605 3.5 -23.5°
Drops below altitude 10° 03:51:25 10° 62° (ENE) 1,468 5.9 -23.1°
Sets 03:53:32 0° 57° (ENE) 2,336 7.1 -22.8°
